Location: Innsbruck
(47.2657°N, 11.3914°E)
Time: 19:24:43
(UTC+01:00)

BEESAT 3 - Pass Details

Date: 08 December 2021
Orbit: 472 x 512 km, 64.9° (Epoch: 22 January)

Event Time Altitude Azimuth Distance (km) Brightness Sun altitude
Rises 19:36:25 0° 245° (WSW) 2,559 ? -31.6°
Reaches altitude 10° 19:38:46 10° 257° (WSW) 1,689 ? -32.0°
Enters shadow 19:39:58 17° 269° (W) 1,300 ? -32.2°
